Location: Belvedere Heights
(33.9836°N, 117.3109°W)
Time: 19:24:18
(UTC+00:00)

GEOS 3 Rocket - Pass Details

Date: 21 March 2023
Orbit: 770 x 848 km, 115.0° (Epoch: 09 June)

Event Time Altitude Azimuth Distance (km) Brightness Sun altitude
Rises 12:02:34 0° 162° (SSE) 3,258 6.8 -23.1°
Reaches altitude 10° 12:04:55 10° 169° (SSE) 2,343 5.9 -22.7°
Enters shadow 12:09:15 44° 224° (SW) 1,095 3.9 -21.8°
